This demonstration page uses our WeatherBlox Daily Observations layout. Learn more.

Left ArrowRight Arrow

36.17497, -115.13722

Hourly Observations for October 2, 2016

Temp ( °F °C ) Dew Point ( °F °C ) Humidity (%) Winds ( mph kmh ) Pressure ( in mb ) Visibility ( mi km ) Precip ( " mm )
12:53 am 00:53 Clear 76 24.4 41 5 29 29 Calm 29.86 1011 10 16.0934 0 0
1:53 am 01:53 Clear 78 25.6 33 0.6 19 19 WSW 5 7 29.85 1011 10 16.0934 0 0
2:53 am 02:53 Clear 73 22.8 34 1.1 24 24 S 9 15 29.85 1011 10 16.0934 0 0
3:53 am 03:53 Clear 76 24.4 35 1.7 23 23 S 13 20 29.84 1011 10 16.0934 0 0
4:53 am 04:53 Clear 73 22.8 36 2.2 26 26 S 9 15 29.85 1011 10 16.0934 0 0
5:53 am 05:53 Clear 74 23.3 35 1.7 24 24 SSW 15 24 29.85 1011 10 16.0934 0 0
6:53 am 06:53 Sunny 73 22.8 36 2.2 26 26 SSW 16 26 29.86 1011 10 16.0934 0 0
7:53 am 07:53 Sunny 75 23.9 36 2.2 24 24 SSW 15 24 29.87 1012 10 16.0934 0 0
8:53 am 08:53 Sunny 78 25.6 34 1.1 20 20 S 13 20 29.88 1012 10 16.0934 0 0
9:53 am 09:53 Sunny 81 27.2 33 0.6 18 18 SSE 10 17 29.87 1011 10 16.0934 0 0
10:53 am 10:53 Sunny 84 28.9 33 0.6 16 16 SSW 20 31 29.83 1010 10 16.0934 0 0
11:53 am 11:53 Sunny 85 29.4 25 -3.9 11 11 SSW 16 26 29.83 1010 10 16.0934 0 0
12:53 pm 12:53 Sunny 87 30.6 24 -4.4 10 10 SSW 20 31 29.79 1009 10 16.0934 0 0
1:53 pm 13:53 Sunny 87 30.6 22 -5.6 9 9 S 17 28 29.74 1007 10 16.0934 0 0
2:53 pm 14:53 Sunny 87 30.6 16 -8.9 7 7 SW 21 33 29.73 1007 10 16.0934 0 0
3:26 pm 15:26 Sunny 88 31 10 -12 5 5 SSW 17 28 29.56 1001 10 16.0934 0 0
3:53 pm 15:53 Sunny 87 30.6 5 -15 4 4 WSW 17 28 29.72 1006 10 16.0934 0 0
4:53 pm 16:53 Sunny 85 29.4 8 -13.3 5 5 SW 22 35 29.71 1006 10 16.0934 0 0
5:53 pm 17:53 Sunny 83 28.3 10 -12.2 6 6 SW 20 31 29.69 1006 10 16.0934 0 0
6:53 pm 18:53 Clear 81 27.2 13 -10.6 7 7 SW 13 20 29.7 1006 10 16.0934 0 0
7:53 pm 19:53 Clear 79 26.1 15 -9.4 9 9 WSW 18 30 29.68 1005 10 16.0934 0 0
8:53 pm 20:53 Clear 77 25 19 -7.2 11 11 WSW 17 28 29.69 1005 10 16.0934 0 0
9:53 pm 21:53 Clear 74 23.3 24 -4.4 15 15 SW 10 17 29.71 1006 10 16.0934 0 0
10:53 pm 22:53 Clear 72 22.2 28 -2.2 19 19 SSW 12 19 29.7 1006 10 16.0934 0 0
11:42 pm 23:42 Clear 72 22 27 -3 19 19 W 23 37 29.59 1002 10 16.0934 0 0
11:53 pm 23:53 Clear 71 21.7 26 -3.3 19 19 WSW 25 41 29.71 1006 10 16.0934 0 0

Powered by AerisWeather